Regional Weather Roundup
Issued by NWS Northern Indiana

Home | Current Version | Previous Version | Text Only | Print | Product List | Glossary On
Versions: 1 2 3 4 5 6 7 8 9 10 11 12 13 14 15 16 17 18 19 20 21 22 23 24 25 26 27 28 29 30 31 32 33 34 35 36 37 38 39 40 41 42 43 44 45 46 47 48 49 50
000
ASUS43 KIWX 041010
RWRIWX

KIWX WEATHER ROUNDUP
NATIONAL WEATHER SERVICE NORTHERN INDIANA
600 AM EDT MON MAY 04 2015

NOTE: "FAIR" INDICATES FEW OR NO CLOUDS BELOW 12,000 FEET WITH NO
SIGNIFICANT WEATHER AND/OR OBSTRUCTIONS TO VISIBILITY.

* THESE STATIONS ARE NOT UNDER NWS QUALITY CONTROL. THEY ALSO MAY NOT
  REPORT WEATHER SUCH AS PRECIPITATION OR FOG.

INZ001>027-041100-
NORTHERN INDIANA

CITY           SKY/WX    TMP DP  RH WIND       PRES   REMARKS
GARY*          CLOUDY    66 N/A N/A W12       29.96R
VALPARAISO     CLOUDY    63  49  60 SW10      29.98R
MICHIGAN CITY* CLOUDY    63  41  45 SW10      29.96S
LAPORTE*       CLOUDY    66  47  49 SW16      29.97F
KNOX*          CLOUDY    63  27  25 SW15      29.99R
SOUTH BEND     LGT RAIN  67  46  47 SW18G25   29.97R
GOSHEN         CLOUDY    67  46  47 S17G24    29.98F
MONTICELLO*    CLOUDY    64  48  57 S10G17    29.99S
LOGANSPORT*    CLOUDY    59  45  58 S10       30.02S
ROCHESTER*     MOCLDY    64  46  52 SW10      30.00S
WARSAW*        MOCLDY    64  46  52 S8        30.00S
ANGOLA*        MOCLDY    61  48  63 S8        30.00F
FORT WAYNE     CLOUDY    59  49  69 S10       30.04S
HUNTINGTON*    PTCLDY    61  48  62 S6        30.03S
PERU/GRISSOM   CLOUDY    63  49  60 SW14      30.01S
MARION*        PTCLDY    58  47  65 S12       30.05S

$$
INZ028>050-041100-
CENTRAL INDIANA

CITY           SKY/WX    TMP DP  RH WIND       PRES   REMARKS
LAFAYETTE      MOCLDY    62  47  57 SW6       30.01S
MUNCIE*        PTCLDY    61  48  62 S8        30.06F
INDIANAPOLIS   MOCLDY    59  47  64 S8        30.05F

$$
MIZ043>046-050>051-056>058-064>065-071>073-077>080-041100-
SOUTHWEST LOWER MICHIGAN

CITY           SKY/WX    TMP DP  RH WIND       PRES   REMARKS
BATTLE CREEK   CLOUDY    61  52  72 S12       29.98R
BENTON HARBOR  CLOUDY    66  47  50 SW18G28   29.93R
COLDWATER*     MOCLDY    63  46  55 S6        29.98F
HILLSDALE*     CLOUDY    62  48  60 S6        30.01F
HOLLAND        CLOUDY    62  51  67 S10       29.92F
GRAND RAPIDS   CLOUDY    59  54  83 S9        29.93S
KALAMAZOO      TSTM      61  52  72 S6        29.97R
STURGIS*       MOCLDY    63  46  55 S12       29.97F
THREE RIVERS*  FAIR      63  48  59 S10       29.96F

$$
OHZ001>008-015>018-024>025-041100-
NORTHWEST OHIO

CITY           SKY/WX    TMP DP  RH WIND       PRES   REMARKS
WAUSEON*       FAIR      61  48  63 S10       30.03S
DEFIANCE       CLOUDY    62  48  60 S8        30.03F
FINDLAY        MOCLDY    62  47  57 S12       30.06S
TOLEDO EXPRESS CLOUDY    62  47  57 S7        30.03F
TOLEDO METCALF MOCLDY    63  46  54 S9        30.05S
LIMA           MOCLDY    61  47  59 S10       30.07S

$$
AND FOR LAKE MICHIGAN COASTAL AND OPEN LAKE BUOY OBSERVATIONS

STATION/POSITION TEMP    WIND        PRES    VSBY  WAVE
                 AIR SEA DIR/SP/G                  HT/PER
                 (F)     (DEG/KT/KT) (MB)    (MI)  (FT/S)
CALUMET HARBOR    64     180/  6/ 10   N/A
MICHIGAN CITY     66     200/ 19/ 23   N/A
BURNS HARBOR      66     220/ 14/ 24 1014.9R
SAINT JOSEPH      60     180/ 12/ 21 1014.6S
4 MI NW BRIDGMAN  55 47  250/ 10/ 12   N/A           2/ 3
MICHIGAN CITY     58 50  240/ 14/ 17   N/A           2/ 3

$$
&&


USA.gov is the U.S. government's official web portal to all federal, state and local government web resources and services.